WJA335 CYUL-CYVR

Flight info

Callsign WJA335
Flight time 4h 33m
Altitude 34000
Route KESKA DCT BIPKO DCT IPSAK DCT OMEGI DCT RADEN DCT 47N080W 49N090W/N0453F360 DCT XOVON DCT MUTUR DCT 5130N11000W 51N115W DCT BOOTH CANUC6
Aircraft B738/M-SDE2E3FGHIRWXY/LB1

Departure

Time 2026-05-04 17:44
Airport Montreal / Pierre Elliott Trudeau International Airport (CYUL)

Arrival

Time 2026-05-04 22:17
Airport Vancouver International Airport (CYVR)
Time Latitude Longitude Altitude Speed Heading
2026-05-04 17:25 45.45884 -73.74599 126 ft 0 kts 180°
2026-05-04 17:34 45.45927 -73.74599 126 ft 2 kts 179°
2026-05-04 17:34 45.45937 -73.74599 126 ft 2 kts 171°
2026-05-04 17:35 45.45952 -73.74638 126 ft 1 kts 68°
2026-05-04 17:35 45.45950 -73.74642 126 ft 0 kts 71°
2026-05-04 17:37 45.45950 -73.74641 126 ft 0 kts 72°
2026-05-04 17:37 45.45954 -73.74622 126 ft 3 kts 76°
2026-05-04 17:37 45.45965 -73.74570 126 ft 7 kts 71°
2026-05-04 17:38 45.45986 -73.74487 126 ft 10 kts 69°
2026-05-04 17:38 45.46019 -73.74374 126 ft 14 kts 56°
2026-05-04 17:38 45.46084 -73.74269 126 ft 11 kts 46°
2026-05-04 17:38 45.46136 -73.74173 126 ft 13 kts 76°
2026-05-04 17:39 45.46250 -73.73911 126 ft 19 kts 43°
2026-05-04 17:39 45.46361 -73.73765 126 ft 23 kts 42°
2026-05-04 17:39 45.46489 -73.73598 126 ft 26 kts 43°
2026-05-04 17:40 45.46633 -73.73408 126 ft 29 kts 43°
2026-05-04 17:40 45.46793 -73.73197 126 ft 33 kts 42°
2026-05-04 17:40 45.46971 -73.72963 126 ft 35 kts 43°
2026-05-04 17:40 45.47150 -73.72730 126 ft 34 kts 43°
2026-05-04 17:41 45.47322 -73.72506 126 ft 32 kts 42°
2026-05-04 17:41 45.47487 -73.72290 126 ft 31 kts 42°
2026-05-04 17:41 45.47644 -73.72082 126 ft 30 kts 42°
2026-05-04 17:41 45.47781 -73.71903 126 ft 14 kts 42°
2026-05-04 17:42 45.47805 -73.71796 126 ft 11 kts 125°
2026-05-04 17:42 45.47752 -73.71712 126 ft 10 kts 133°
2026-05-04 17:42 45.47702 -73.71644 126 ft 8 kts 156°
2026-05-04 17:42 45.47655 -73.71665 126 ft 7 kts 223°
2026-05-04 17:43 45.47649 -73.71673 126 ft 0 kts 223°
2026-05-04 17:43 45.47625 -73.71706 126 ft 25 kts 223°
2026-05-04 17:43 45.47300 -73.72131 126 ft 98 kts 223°
2026-05-04 17:44 45.46636 -73.72997 131 ft 157 kts 223°
2026-05-04 17:44 45.45810 -73.74090 719 ft 166 kts 226°
2026-05-04 17:44 45.44991 -73.75230 1503 ft 167 kts 226°
2026-05-04 17:44 45.44168 -73.76372 2102 ft 173 kts 227°
2026-05-04 17:45 45.43266 -73.77642 2474 ft 190 kts 227°
2026-05-04 17:45 45.42324 -73.79044 2945 ft 202 kts 238°
2026-05-04 17:45 45.41963 -73.80974 3374 ft 216 kts 276°
2026-05-04 17:45 45.42571 -73.82967 3914 ft 232 kts 305°
2026-05-04 17:46 45.43702 -73.84739 4423 ft 249 kts 310°
2026-05-04 17:46 45.44885 -73.86530 5185 ft 252 kts 308°
2026-05-04 17:46 45.46041 -73.88395 5932 ft 255 kts 307°
2026-05-04 17:46 45.47172 -73.90300 6752 ft 256 kts 306°
2026-05-04 17:47 45.48321 -73.92258 7573 ft 257 kts 306°
2026-05-04 17:47 45.49444 -73.94167 8365 ft 257 kts 306°
2026-05-04 17:47 45.50597 -73.96130 9163 ft 258 kts 306°
2026-05-04 17:47 45.51741 -73.98077 9984 ft 257 kts 306°
2026-05-04 17:48 45.52911 -74.00072 10475 ft 269 kts 306°
2026-05-04 17:48 45.54143 -74.02174 10856 ft 284 kts 306°
2026-05-04 17:48 45.55437 -74.04378 11254 ft 297 kts 307°
2026-05-04 17:48 45.56781 -74.06667 11805 ft 306 kts 307°
2026-05-04 17:49 45.58147 -74.08992 12443 ft 310 kts 307°
2026-05-04 17:49 45.59532 -74.11349 13120 ft 313 kts 307°
2026-05-04 17:49 45.60938 -74.13745 13835 ft 315 kts 307°
2026-05-04 17:49 45.62328 -74.16192 14435 ft 319 kts 305°
2026-05-04 17:50 45.63638 -74.18711 15118 ft 320 kts 303°
2026-05-04 17:50 45.64929 -74.21300 15819 ft 321 kts 303°
2026-05-04 17:50 45.66212 -74.23889 16477 ft 323 kts 303°
2026-05-04 17:50 45.67517 -74.26503 17121 ft 324 kts 303°
2026-05-04 17:51 45.68834 -74.29122 17796 ft 325 kts 304°
2026-05-04 17:51 45.70168 -74.31763 18378 ft 329 kts 304°
2026-05-04 17:51 45.71403 -74.34493 18980 ft 330 kts 298°
2026-05-04 17:51 45.72298 -74.37462 19545 ft 332 kts 288°
2026-05-04 17:52 45.72775 -74.40704 20124 ft 335 kts 280°
2026-05-04 17:52 45.73038 -74.44030 20673 ft 337 kts 278°
2026-05-04 17:52 45.73245 -74.47404 21154 ft 341 kts 278°
2026-05-04 17:52 45.73449 -74.50774 21616 ft 345 kts 278°
2026-05-04 17:53 45.73663 -74.54226 22109 ft 348 kts 278°
2026-05-04 17:53 45.73880 -74.57654 22568 ft 352 kts 279°
2026-05-04 17:53 45.74110 -74.61161 23106 ft 353 kts 279°
2026-05-04 17:53 45.74343 -74.64645 23512 ft 357 kts 279°
2026-05-04 17:54 45.74583 -74.68243 24001 ft 360 kts 278°
2026-05-04 17:54 45.74820 -74.71785 24421 ft 363 kts 278°
2026-05-04 17:54 45.75058 -74.75359 24988 ft 363 kts 278°
2026-05-04 17:54 45.75298 -74.78976 25542 ft 363 kts 278°
2026-05-04 17:55 45.75535 -74.82555 25888 ft 368 kts 278°
2026-05-04 17:55 45.75808 -74.86206 26337 ft 369 kts 281°
2026-05-04 17:55 45.76238 -74.89806 26730 ft 370 kts 284°
2026-05-04 17:55 45.76785 -74.93436 27171 ft 371 kts 285°
2026-05-04 17:56 45.77364 -74.97002 27567 ft 373 kts 286°
2026-05-04 17:56 45.77959 -75.00629 27914 ft 376 kts 285°
2026-05-04 17:56 45.78544 -75.04247 28435 ft 375 kts 285°
2026-05-04 17:56 45.79135 -75.07961 28677 ft 380 kts 285°
2026-05-04 17:57 45.79704 -75.11601 29179 ft 379 kts 285°
2026-05-04 17:57 45.80280 -75.15338 29608 ft 379 kts 285°
2026-05-04 17:57 45.80857 -75.19115 29926 ft 382 kts 285°
2026-05-04 17:57 45.81423 -75.22822 30229 ft 385 kts 285°
2026-05-04 17:58 45.82004 -75.26660 30577 ft 387 kts 285°
2026-05-04 17:58 45.82579 -75.30475 31095 ft 384 kts 285°
2026-05-04 17:58 45.83145 -75.34239 31622 ft 381 kts 285°
2026-05-04 17:58 45.83710 -75.38012 32097 ft 378 kts 285°
2026-05-04 17:59 45.84266 -75.41734 32562 ft 375 kts 285°
2026-05-04 17:59 45.84816 -75.45422 32988 ft 373 kts 285°
2026-05-04 17:59 45.85902 -75.52715 33604 ft 373 kts 285°
2026-05-04 18:00 45.86460 -75.56465 33697 ft 376 kts 285°
2026-05-04 18:00 45.87543 -75.63791 33693 ft 375 kts 285°
2026-05-04 18:01 45.88612 -75.71056 33689 ft 373 kts 284°
2026-05-04 18:01 45.89685 -75.78376 33685 ft 375 kts 284°
2026-05-04 18:02 45.91281 -75.89336 33685 ft 373 kts 284°
2026-05-04 18:02 45.92333 -75.96587 33687 ft 374 kts 284°
2026-05-04 18:03 45.93692 -76.03748 33680 ft 370 kts 292°
2026-05-04 18:03 45.95646 -76.10583 33681 ft 371 kts 295°
2026-05-04 18:04 45.97957 -76.17186 33677 ft 371 kts 298°
2026-05-04 18:05 46.01530 -76.26954 33673 ft 370 kts 297°
2026-05-04 18:05 46.03853 -76.33579 33664 ft 371 kts 297°
2026-05-04 18:06 46.07285 -76.43566 33666 ft 371 kts 296°
2026-05-04 18:06 46.09557 -76.50242 33661 ft 371 kts 297°
2026-05-04 18:07 46.11832 -76.56941 33644 ft 371 kts 297°
2026-05-04 18:07 46.14097 -76.63628 33652 ft 371 kts 297°
2026-05-04 18:08 46.16375 -76.70379 33653 ft 372 kts 296°
2026-05-04 18:08 46.18644 -76.77111 33649 ft 371 kts 296°
2026-05-04 18:09 46.23150 -76.90530 33651 ft 371 kts 296°
2026-05-04 18:10 46.25391 -76.97236 33648 ft 370 kts 296°
2026-05-04 18:10 46.27622 -77.03915 33640 ft 370 kts 296°
2026-05-04 18:11 46.29851 -77.10611 33636 ft 371 kts 296°
2026-05-04 18:11 46.32078 -77.17329 33626 ft 371 kts 296°
2026-05-04 18:12 46.34316 -77.24100 33617 ft 371 kts 296°
2026-05-04 18:12 46.36528 -77.30791 33618 ft 370 kts 296°
2026-05-04 18:13 46.38754 -77.37543 33619 ft 371 kts 296°
2026-05-04 18:14 46.42063 -77.47620 33615 ft 371 kts 296°
2026-05-04 18:14 46.44263 -77.54346 33613 ft 371 kts 296°
2026-05-04 18:15 46.48697 -77.67955 33612 ft 371 kts 295°
2026-05-04 18:16 46.50902 -77.74752 33614 ft 370 kts 295°
2026-05-04 18:16 46.53107 -77.81566 33614 ft 371 kts 295°
2026-05-04 18:17 46.56383 -77.91729 33613 ft 372 kts 295°
2026-05-04 18:18 46.59664 -78.01931 33604 ft 372 kts 295°
2026-05-04 18:18 46.61854 -78.08765 33600 ft 373 kts 294°
2026-05-04 18:19 46.65139 -78.19054 33580 ft 372 kts 295°
2026-05-04 18:19 46.67305 -78.25857 33592 ft 372 kts 295°
2026-05-04 18:20 46.69473 -78.32687 33586 ft 372 kts 295°
2026-05-04 18:20 46.71655 -78.39580 33585 ft 372 kts 294°
2026-05-04 18:21 46.73804 -78.46396 33585 ft 372 kts 294°
2026-05-04 18:21 46.75961 -78.53254 33582 ft 371 kts 294°
2026-05-04 18:22 46.78094 -78.60050 33578 ft 371 kts 294°
2026-05-04 18:22 46.80249 -78.66936 33571 ft 371 kts 293°
2026-05-04 18:23 46.82404 -78.73838 33563 ft 373 kts 294°
2026-05-04 18:23 46.84544 -78.80711 33562 ft 372 kts 293°
2026-05-04 18:24 46.86685 -78.87607 33557 ft 371 kts 293°
2026-05-04 18:24 46.88817 -78.94487 33552 ft 372 kts 293°
2026-05-04 18:25 46.90948 -79.01383 33549 ft 372 kts 293°
2026-05-04 18:25 46.93065 -79.08253 33554 ft 371 kts 293°
2026-05-04 18:26 46.95171 -79.15112 33547 ft 372 kts 293°
2026-05-04 18:26 46.97287 -79.22015 33548 ft 372 kts 292°
2026-05-04 18:27 46.99404 -79.28948 33553 ft 371 kts 292°
2026-05-04 18:27 47.01493 -79.35805 33557 ft 372 kts 292°
2026-05-04 18:28 47.03609 -79.42770 33549 ft 370 kts 292°
2026-05-04 18:28 47.05705 -79.49690 33534 ft 370 kts 292°
2026-05-04 18:29 47.07812 -79.56664 33536 ft 371 kts 292°
2026-05-04 18:29 47.09903 -79.63612 33528 ft 372 kts 292°
2026-05-04 18:30 47.13039 -79.74057 33535 ft 371 kts 291°
2026-05-04 18:31 47.15110 -79.80975 33529 ft 370 kts 291°
2026-05-04 18:31 47.17184 -79.87921 33522 ft 371 kts 291°
2026-05-04 18:32 47.19262 -79.94910 33523 ft 372 kts 291°
2026-05-04 18:32 47.21328 -80.01876 33506 ft 371 kts 291°
2026-05-04 18:33 47.23397 -80.08873 33490 ft 371 kts 291°
2026-05-04 18:33 47.25445 -80.15809 33491 ft 369 kts 291°
2026-05-04 18:34 47.27477 -80.22712 33490 ft 370 kts 290°
2026-05-04 18:34 47.29525 -80.29691 33487 ft 370 kts 291°
2026-05-04 18:35 47.31563 -80.36661 33480 ft 370 kts 290°
2026-05-04 18:35 47.33604 -80.43652 33478 ft 370 kts 290°
2026-05-04 18:36 47.35620 -80.50576 33466 ft 367 kts 290°
2026-05-04 18:36 47.37647 -80.57563 33467 ft 370 kts 290°
2026-05-04 18:37 47.39656 -80.64499 33458 ft 368 kts 290°
2026-05-04 18:37 47.41674 -80.71497 33469 ft 367 kts 289°
2026-05-04 18:38 47.43663 -80.78423 33472 ft 367 kts 290°
2026-05-04 18:38 47.45653 -80.85363 33465 ft 368 kts 290°
2026-05-04 18:39 47.47636 -80.92291 33463 ft 366 kts 289°
2026-05-04 18:39 47.49612 -80.99202 33457 ft 366 kts 289°
2026-05-04 18:40 47.51597 -81.06170 33450 ft 365 kts 289°
2026-05-04 18:40 47.53545 -81.13055 33443 ft 366 kts 288°
2026-05-04 18:41 47.55506 -81.20005 33418 ft 365 kts 288°
2026-05-04 18:41 47.57457 -81.26925 33433 ft 366 kts 288°
2026-05-04 18:42 47.59407 -81.33864 33422 ft 364 kts 288°
2026-05-04 18:42 47.61356 -81.40822 33421 ft 366 kts 288°
2026-05-04 18:43 47.63298 -81.47770 33417 ft 364 kts 288°
2026-05-04 18:43 47.65241 -81.54738 33420 ft 365 kts 288°
2026-05-04 18:44 47.67176 -81.61709 33411 ft 364 kts 288°
2026-05-04 18:44 47.69109 -81.68693 33409 ft 365 kts 287°
2026-05-04 18:45 47.71028 -81.75642 33403 ft 364 kts 287°
2026-05-04 18:45 47.72936 -81.82572 33395 ft 363 kts 287°
2026-05-04 18:46 47.74849 -81.89527 33392 ft 363 kts 287°
2026-05-04 18:46 47.76761 -81.96497 33384 ft 362 kts 287°
2026-05-04 18:47 47.78666 -82.03471 33376 ft 363 kts 287°
2026-05-04 18:47 47.80552 -82.10404 33369 ft 362 kts 287°
2026-05-04 18:48 47.82435 -82.17347 33374 ft 364 kts 286°
2026-05-04 18:48 47.84310 -82.24280 33379 ft 362 kts 286°
2026-05-04 18:49 47.86179 -82.31223 33383 ft 362 kts 286°
2026-05-04 18:49 47.88051 -82.38193 33373 ft 362 kts 286°
2026-05-04 18:50 47.89922 -82.45177 33363 ft 364 kts 286°
2026-05-04 18:50 47.91793 -82.52158 33362 ft 363 kts 286°
2026-05-04 18:51 47.93655 -82.59144 33347 ft 366 kts 285°
2026-05-04 18:51 47.95521 -82.66163 33357 ft 362 kts 285°
2026-05-04 18:52 47.97375 -82.73172 33369 ft 365 kts 284°
2026-05-04 18:52 47.99235 -82.80213 33361 ft 364 kts 285°
2026-05-04 18:53 48.01090 -82.87246 33354 ft 364 kts 285°
2026-05-04 18:53 48.02933 -82.94270 33349 ft 367 kts 285°
2026-05-04 18:54 48.04786 -83.01360 33332 ft 366 kts 284°
2026-05-04 18:54 48.06630 -83.08417 33336 ft 367 kts 285°
2026-05-04 18:55 48.08489 -83.15571 33335 ft 369 kts 284°
2026-05-04 18:55 48.11280 -83.26322 33334 ft 366 kts 284°
2026-05-04 18:56 48.13108 -83.33408 33339 ft 369 kts 284°
2026-05-04 18:56 48.14957 -83.40602 33339 ft 369 kts 284°
2026-05-04 18:57 48.16793 -83.47755 33342 ft 369 kts 284°
2026-05-04 18:57 48.18636 -83.54958 33339 ft 371 kts 284°
2026-05-04 18:58 48.20472 -83.62162 33339 ft 373 kts 284°
2026-05-04 18:58 48.22326 -83.69456 33333 ft 371 kts 284°
2026-05-04 18:59 48.24141 -83.76609 33324 ft 372 kts 284°
2026-05-04 18:59 48.25975 -83.83891 33324 ft 374 kts 284°
2026-05-04 19:00 48.27799 -83.91121 33304 ft 373 kts 284°
2026-05-04 19:00 48.29641 -83.98495 33318 ft 376 kts 284°
2026-05-04 19:01 48.31470 -84.05806 33319 ft 377 kts 284°
2026-05-04 19:01 48.33305 -84.13171 33324 ft 376 kts 284°
2026-05-04 19:02 48.35128 -84.20512 33336 ft 377 kts 284°
2026-05-04 19:02 48.36963 -84.27919 33320 ft 378 kts 284°
2026-05-04 19:03 48.38795 -84.35353 33322 ft 381 kts 285°
2026-05-04 19:03 48.40622 -84.42775 33303 ft 380 kts 284°
2026-05-04 19:04 48.42471 -84.50333 33311 ft 384 kts 285°
2026-05-04 19:04 48.44300 -84.57822 33310 ft 385 kts 285°
2026-05-04 19:05 48.46138 -84.65364 33325 ft 381 kts 284°
2026-05-04 19:05 48.47975 -84.72935 33297 ft 385 kts 285°
2026-05-04 19:06 48.49796 -84.80473 33293 ft 383 kts 284°
2026-05-04 19:06 48.51622 -84.88058 33294 ft 386 kts 285°
2026-05-04 19:07 48.53440 -84.95629 33289 ft 386 kts 285°
2026-05-04 19:07 48.55267 -85.03263 33301 ft 388 kts 285°
2026-05-04 19:08 48.57092 -85.10917 33281 ft 389 kts 285°
2026-05-04 19:08 48.58924 -85.18619 33290 ft 389 kts 285°
2026-05-04 19:09 48.60733 -85.26247 33287 ft 388 kts 285°
2026-05-04 19:09 48.62550 -85.33948 33292 ft 392 kts 285°
2026-05-04 19:10 48.64367 -85.41672 33290 ft 388 kts 285°
2026-05-04 19:10 48.66172 -85.49382 33275 ft 391 kts 285°
2026-05-04 19:11 48.67981 -85.57131 33271 ft 391 kts 285°
2026-05-04 19:11 48.69783 -85.64875 33289 ft 393 kts 285°
2026-05-04 19:12 48.72499 -85.76592 33290 ft 392 kts 285°
2026-05-04 19:13 48.74309 -85.84444 33272 ft 393 kts 285°
2026-05-04 19:13 48.76106 -85.92261 33272 ft 392 kts 285°
2026-05-04 19:14 48.77896 -86.00082 33284 ft 394 kts 285°
2026-05-04 19:14 48.79678 -86.07899 33280 ft 392 kts 285°
2026-05-04 19:15 48.81449 -86.15699 33288 ft 393 kts 285°
2026-05-04 19:15 48.83219 -86.23510 33280 ft 393 kts 285°
2026-05-04 19:16 48.84990 -86.31360 33275 ft 395 kts 285°
2026-05-04 19:16 48.86753 -86.39212 33286 ft 395 kts 285°
2026-05-04 19:17 48.88528 -86.47135 33289 ft 396 kts 285°
2026-05-04 19:17 48.90296 -86.55064 33280 ft 396 kts 285°
2026-05-04 19:18 48.92048 -86.62944 33276 ft 397 kts 285°
2026-05-04 19:18 48.93810 -86.70905 33278 ft 396 kts 285°
2026-05-04 19:19 48.95564 -86.78851 33275 ft 395 kts 285°
2026-05-04 19:19 48.97308 -86.86794 33264 ft 399 kts 284°
2026-05-04 19:20 48.99060 -86.94799 33257 ft 399 kts 285°
2026-05-04 19:20 49.00800 -87.02776 33255 ft 399 kts 285°
2026-05-04 19:21 49.02542 -87.10790 33254 ft 400 kts 285°
2026-05-04 19:21 49.04288 -87.18848 33274 ft 400 kts 285°
2026-05-04 19:22 49.06017 -87.26869 33255 ft 401 kts 285°
2026-05-04 19:22 49.07746 -87.34930 33264 ft 400 kts 285°
2026-05-04 19:23 49.09457 -87.42940 33284 ft 400 kts 285°
2026-05-04 19:23 49.11179 -87.51032 33281 ft 401 kts 285°
2026-05-04 19:24 49.12893 -87.59120 33266 ft 400 kts 285°
2026-05-04 19:24 49.14605 -87.67223 33259 ft 401 kts 284°
2026-05-04 19:25 49.16307 -87.75320 33266 ft 401 kts 284°
2026-05-04 19:25 49.18008 -87.83431 33270 ft 402 kts 284°
2026-05-04 19:26 49.19694 -87.91512 33274 ft 401 kts 284°
2026-05-04 19:26 49.21381 -87.99609 33274 ft 402 kts 285°
2026-05-04 19:27 49.23068 -88.07760 33282 ft 403 kts 285°
2026-05-04 19:27 49.24748 -88.15896 33292 ft 401 kts 284°
2026-05-04 19:28 49.26415 -88.24017 33301 ft 402 kts 285°
2026-05-04 19:28 49.28072 -88.32117 33299 ft 400 kts 284°
2026-05-04 19:29 49.29732 -88.40263 33288 ft 400 kts 285°
2026-05-04 19:29 49.31377 -88.48375 33289 ft 400 kts 285°
2026-05-04 19:30 49.33005 -88.56436 33288 ft 400 kts 285°
2026-05-04 19:30 49.34639 -88.64567 33289 ft 399 kts 285°
2026-05-04 19:31 49.36266 -88.72690 33297 ft 397 kts 284°
2026-05-04 19:31 49.37887 -88.80820 33299 ft 399 kts 284°
2026-05-04 19:32 49.39495 -88.88906 33301 ft 398 kts 284°
2026-05-04 19:32 49.41099 -88.97009 33302 ft 398 kts 284°
2026-05-04 19:33 49.42700 -89.05138 33308 ft 399 kts 284°
2026-05-04 19:33 49.44297 -89.13277 33308 ft 398 kts 284°
2026-05-04 19:34 49.45880 -89.21376 33301 ft 400 kts 284°
2026-05-04 19:34 49.47475 -89.29576 33310 ft 398 kts 284°
2026-05-04 19:35 49.49046 -89.37682 33299 ft 398 kts 284°
2026-05-04 19:35 49.50617 -89.45823 33311 ft 398 kts 284°
2026-05-04 19:36 49.52188 -89.53998 33301 ft 400 kts 284°
2026-05-04 19:36 49.53748 -89.62154 33301 ft 399 kts 284°
2026-05-04 19:37 49.55312 -89.70371 33308 ft 399 kts 284°
2026-05-04 19:37 49.56860 -89.78537 33305 ft 400 kts 284°
2026-05-04 19:38 49.58417 -89.86786 33311 ft 401 kts 284°
2026-05-04 19:38 49.59956 -89.94977 33309 ft 400 kts 283°
2026-05-04 19:39 49.61503 -90.03243 33325 ft 401 kts 284°
2026-05-04 19:39 49.63033 -90.11455 33323 ft 401 kts 284°
2026-05-04 19:40 49.64560 -90.19683 33317 ft 400 kts 284°
2026-05-04 19:40 49.66081 -90.27923 33326 ft 401 kts 284°
2026-05-04 19:41 49.67602 -90.36192 33332 ft 401 kts 284°
2026-05-04 19:41 49.69115 -90.44459 33328 ft 401 kts 284°
2026-05-04 19:42 49.70623 -90.52737 33335 ft 401 kts 284°
2026-05-04 19:42 49.72123 -90.61008 33340 ft 401 kts 284°
2026-05-04 19:43 49.73622 -90.69312 33345 ft 402 kts 283°
2026-05-04 19:43 49.75120 -90.77641 33358 ft 403 kts 283°
2026-05-04 19:44 49.76612 -90.85982 33364 ft 403 kts 283°
2026-05-04 19:44 49.78093 -90.94310 33359 ft 403 kts 283°
2026-05-04 19:45 49.79572 -91.02678 33363 ft 402 kts 283°
2026-05-04 19:45 49.81036 -91.10982 33365 ft 402 kts 283°
2026-05-04 19:46 49.82501 -91.19322 33376 ft 401 kts 283°
2026-05-04 19:46 49.83954 -91.27634 33375 ft 403 kts 283°
2026-05-04 19:47 49.85413 -91.36019 33383 ft 403 kts 283°
2026-05-04 19:47 49.86854 -91.44334 33392 ft 403 kts 283°
2026-05-04 19:48 49.88306 -91.52766 33507 ft 411 kts 283°
2026-05-04 19:48 49.89050 -91.57101 33696 ft 413 kts 284°
2026-05-04 19:48 49.89780 -91.61376 33889 ft 415 kts 284°
2026-05-04 19:48 49.90521 -91.65714 34169 ft 414 kts 283°
2026-05-04 19:49 49.91262 -91.70064 34439 ft 414 kts 283°
2026-05-04 19:49 49.91990 -91.74346 34663 ft 414 kts 283°
2026-05-04 19:49 49.92721 -91.78656 34918 ft 413 kts 283°
2026-05-04 19:49 49.93440 -91.82904 35124 ft 414 kts 283°
2026-05-04 19:50 49.94174 -91.87255 35338 ft 414 kts 283°
2026-05-04 19:50 49.95633 -91.95933 35430 ft 417 kts 283°
2026-05-04 19:51 49.97095 -92.04672 35435 ft 413 kts 283°
2026-05-04 19:51 49.98553 -92.13433 35437 ft 413 kts 284°
2026-05-04 19:52 49.99984 -92.22075 35439 ft 414 kts 284°
2026-05-04 19:52 50.01406 -92.30709 35448 ft 415 kts 284°
2026-05-04 19:53 50.02831 -92.39413 35452 ft 414 kts 284°
2026-05-04 19:53 50.04242 -92.48071 35457 ft 416 kts 284°
2026-05-04 19:54 50.05650 -92.56755 35458 ft 415 kts 284°
2026-05-04 19:54 50.07053 -92.65450 35472 ft 415 kts 283°
2026-05-04 19:55 50.08450 -92.74153 35470 ft 415 kts 283°
2026-05-04 19:55 50.09845 -92.82886 35481 ft 416 kts 283°
2026-05-04 19:56 50.11235 -92.91640 35480 ft 415 kts 283°
2026-05-04 19:56 50.12613 -93.00363 35483 ft 416 kts 283°
2026-05-04 19:57 50.13991 -93.09134 35477 ft 416 kts 283°
2026-05-04 19:57 50.15355 -93.17854 35499 ft 417 kts 283°
2026-05-04 19:58 50.16717 -93.26598 35501 ft 417 kts 283°
2026-05-04 19:58 50.18073 -93.35366 35512 ft 417 kts 283°
2026-05-04 19:59 50.19429 -93.44183 35520 ft 416 kts 283°
2026-05-04 19:59 50.20770 -93.52954 35524 ft 417 kts 283°
2026-05-04 20:00 50.22104 -93.61730 35532 ft 417 kts 284°
2026-05-04 20:00 50.23434 -93.70525 35527 ft 417 kts 283°
2026-05-04 20:01 50.24762 -93.79349 35539 ft 418 kts 283°
2026-05-04 20:01 50.26085 -93.88184 35533 ft 417 kts 283°
2026-05-04 20:02 50.27395 -93.96989 35548 ft 419 kts 283°
2026-05-04 20:02 50.28705 -94.05839 35557 ft 418 kts 283°
2026-05-04 20:03 50.30003 -94.14664 35565 ft 417 kts 283°
2026-05-04 20:03 50.31295 -94.23500 35567 ft 418 kts 283°
2026-05-04 20:04 50.32575 -94.32303 35575 ft 417 kts 283°
2026-05-04 20:04 50.33852 -94.41131 35580 ft 418 kts 283°
2026-05-04 20:05 50.35123 -94.49966 35579 ft 419 kts 283°
2026-05-04 20:05 50.36391 -94.58843 35583 ft 417 kts 283°
2026-05-04 20:06 50.37648 -94.67685 35590 ft 418 kts 283°
2026-05-04 20:06 50.38907 -94.76601 35600 ft 418 kts 283°
2026-05-04 20:07 50.40148 -94.85438 35604 ft 418 kts 283°
2026-05-04 20:07 50.41386 -94.94308 35611 ft 418 kts 283°
2026-05-04 20:08 50.42616 -95.03162 35607 ft 418 kts 283°
2026-05-04 20:08 50.43847 -95.12090 35621 ft 419 kts 283°
2026-05-04 20:09 50.45063 -95.20960 35622 ft 418 kts 283°
2026-05-04 20:09 50.46275 -95.29856 35631 ft 418 kts 283°
2026-05-04 20:10 50.47482 -95.38771 35632 ft 417 kts 283°
2026-05-04 20:10 50.48673 -95.47620 35639 ft 418 kts 283°
2026-05-04 20:11 50.49870 -95.56571 35651 ft 419 kts 283°
2026-05-04 20:11 50.51059 -95.65517 35657 ft 418 kts 282°
2026-05-04 20:12 50.52241 -95.74459 35666 ft 419 kts 282°
2026-05-04 20:12 50.53415 -95.83398 35675 ft 419 kts 282°
2026-05-04 20:13 50.54577 -95.92306 35683 ft 418 kts 282°
2026-05-04 20:13 50.55735 -96.01240 35683 ft 418 kts 282°
2026-05-04 20:14 50.56889 -96.10201 35685 ft 418 kts 282°
2026-05-04 20:14 50.58031 -96.19122 35692 ft 418 kts 282°
2026-05-04 20:15 50.59164 -96.28030 35690 ft 419 kts 282°
2026-05-04 20:15 50.60297 -96.36993 35694 ft 418 kts 282°
2026-05-04 20:16 50.61422 -96.45951 35700 ft 418 kts 282°
2026-05-04 20:16 50.62537 -96.54896 35708 ft 419 kts 282°
2026-05-04 20:17 50.63651 -96.63889 35705 ft 418 kts 282°
2026-05-04 20:17 50.64759 -96.72898 35715 ft 418 kts 282°
2026-05-04 20:18 50.65848 -96.81812 35717 ft 419 kts 282°
2026-05-04 20:18 50.66943 -96.90839 35714 ft 418 kts 282°
2026-05-04 20:19 50.68021 -96.99786 35714 ft 418 kts 282°
2026-05-04 20:19 50.69093 -97.08741 35720 ft 417 kts 282°
2026-05-04 20:20 50.70163 -97.17735 35715 ft 419 kts 282°
2026-05-04 20:20 50.71225 -97.26714 35722 ft 418 kts 282°
2026-05-04 20:21 50.72280 -97.35719 35724 ft 418 kts 282°
2026-05-04 20:21 50.73849 -97.49216 35726 ft 418 kts 282°
2026-05-04 20:22 50.74890 -97.58254 35732 ft 418 kts 282°
2026-05-04 20:22 50.75925 -97.67293 35738 ft 419 kts 282°
2026-05-04 20:23 50.76958 -97.76379 35739 ft 419 kts 282°
2026-05-04 20:23 50.77974 -97.85391 35735 ft 419 kts 281°
2026-05-04 20:24 50.78984 -97.94424 35736 ft 419 kts 282°
2026-05-04 20:24 50.79996 -98.03527 35740 ft 418 kts 282°
2026-05-04 20:25 50.80990 -98.12549 35742 ft 419 kts 282°
2026-05-04 20:25 50.81984 -98.21609 35742 ft 418 kts 282°
2026-05-04 20:26 50.82971 -98.30696 35750 ft 420 kts 282°
2026-05-04 20:26 50.83951 -98.39785 35749 ft 419 kts 282°
2026-05-04 20:27 50.84920 -98.48840 35755 ft 419 kts 282°
2026-05-04 20:27 50.85878 -98.57865 35758 ft 418 kts 282°
2026-05-04 20:28 50.86831 -98.66924 35764 ft 419 kts 281°
2026-05-04 20:28 50.87785 -98.76055 35765 ft 419 kts 281°
2026-05-04 20:29 50.88725 -98.85115 35771 ft 420 kts 281°
2026-05-04 20:29 50.89659 -98.94182 35768 ft 419 kts 282°
2026-05-04 20:30 50.90595 -99.03352 35942 ft 424 kts 282°
2026-05-04 20:30 50.91060 -99.07932 36164 ft 423 kts 282°
2026-05-04 20:30 50.91520 -99.12498 36364 ft 423 kts 282°
2026-05-04 20:31 50.91983 -99.17104 36552 ft 424 kts 282°
2026-05-04 20:31 50.92440 -99.21672 36738 ft 425 kts 282°
2026-05-04 20:31 50.92900 -99.26283 36939 ft 424 kts 281°
2026-05-04 20:31 50.93362 -99.30939 37117 ft 425 kts 281°
2026-05-04 20:32 50.93815 -99.35527 37274 ft 425 kts 281°
2026-05-04 20:32 50.94271 -99.40166 37420 ft 426 kts 282°
2026-05-04 20:32 50.94722 -99.44769 37621 ft 426 kts 282°
2026-05-04 20:32 50.95171 -99.49366 37765 ft 426 kts 282°
2026-05-04 20:33 50.96080 -99.58709 37766 ft 427 kts 282°
2026-05-04 20:33 50.96968 -99.67944 37763 ft 425 kts 281°
2026-05-04 20:34 50.97858 -99.77253 37766 ft 427 kts 281°
2026-05-04 20:34 50.98735 -99.86514 37774 ft 427 kts 281°
2026-05-04 20:35 50.99605 -99.95789 37771 ft 425 kts 281°
2026-05-04 20:35 51.00512 -100.05022 37772 ft 423 kts 283°
2026-05-04 20:36 51.01591 -100.14177 37774 ft 426 kts 283°
2026-05-04 20:36 51.02721 -100.23480 37782 ft 426 kts 283°
2026-05-04 20:37 51.03807 -100.32615 37782 ft 424 kts 283°
2026-05-04 20:37 51.04883 -100.41827 37784 ft 425 kts 283°
2026-05-04 20:38 51.05946 -100.51049 37781 ft 425 kts 283°
2026-05-04 20:38 51.06990 -100.60218 37781 ft 425 kts 283°
2026-05-04 20:39 51.08040 -100.69508 37783 ft 426 kts 282°
2026-05-04 20:39 51.09079 -100.78785 37780 ft 426 kts 283°
2026-05-04 20:40 51.10104 -100.88009 37777 ft 425 kts 282°
2026-05-04 20:40 51.11125 -100.97262 37771 ft 425 kts 282°
2026-05-04 20:41 51.12137 -101.06509 37773 ft 424 kts 282°
2026-05-04 20:41 51.13140 -101.15739 37780 ft 423 kts 282°
2026-05-04 20:42 51.14130 -101.24920 37786 ft 424 kts 283°
2026-05-04 20:42 51.15117 -101.34151 37794 ft 425 kts 283°
2026-05-04 20:43 51.16099 -101.43407 37801 ft 425 kts 283°
2026-05-04 20:43 51.17074 -101.52660 37802 ft 425 kts 283°
2026-05-04 20:44 51.18041 -101.61916 37810 ft 424 kts 283°
2026-05-04 20:44 51.19002 -101.71196 37813 ft 424 kts 282°
2026-05-04 20:45 51.19955 -101.80464 37823 ft 423 kts 282°
2026-05-04 20:45 51.20898 -101.89700 37828 ft 424 kts 282°
2026-05-04 20:46 51.21831 -101.98930 37826 ft 423 kts 282°
2026-05-04 20:46 51.22760 -102.08185 37826 ft 423 kts 282°
2026-05-04 20:47 51.23687 -102.17496 37826 ft 425 kts 282°
2026-05-04 20:47 51.24599 -102.26737 37833 ft 425 kts 282°
2026-05-04 20:48 51.25508 -102.36031 37839 ft 424 kts 282°
2026-05-04 20:48 51.26366 -102.45310 37848 ft 425 kts 280°
2026-05-04 20:49 51.26616 -102.54750 37850 ft 428 kts 273°
2026-05-04 20:49 51.26510 -102.64214 37844 ft 427 kts 273°
2026-05-04 20:50 51.26406 -102.73801 37845 ft 427 kts 273°
2026-05-04 20:50 51.26325 -102.83236 37841 ft 428 kts 273°
2026-05-04 20:51 51.26253 -102.92719 37844 ft 428 kts 273°
2026-05-04 20:51 51.26179 -103.02187 37844 ft 428 kts 273°
2026-05-04 20:52 51.26099 -103.11681 37847 ft 428 kts 273°
2026-05-04 20:52 51.26013 -103.21093 37848 ft 428 kts 273°
2026-05-04 20:53 51.25918 -103.30553 37851 ft 426 kts 273°
2026-05-04 20:53 51.25816 -103.40022 37850 ft 426 kts 273°
2026-05-04 20:54 51.25708 -103.49371 37848 ft 426 kts 273°
2026-05-04 20:54 51.25591 -103.58826 37856 ft 425 kts 273°
2026-05-04 20:55 51.25467 -103.68334 37855 ft 427 kts 272°
2026-05-04 20:55 51.25334 -103.77832 37863 ft 427 kts 272°
2026-05-04 20:56 51.25193 -103.87318 37868 ft 428 kts 272°
2026-05-04 20:56 51.25046 -103.96789 37871 ft 428 kts 272°
2026-05-04 20:57 51.24890 -104.06267 37882 ft 427 kts 272°
2026-05-04 20:57 51.24726 -104.15716 37886 ft 427 kts 272°
2026-05-04 20:58 51.24557 -104.25114 37888 ft 426 kts 272°
2026-05-04 20:58 51.24379 -104.34586 37893 ft 427 kts 272°
2026-05-04 20:59 51.24193 -104.44068 37902 ft 427 kts 272°
2026-05-04 20:59 51.24000 -104.53486 37904 ft 428 kts 272°
2026-05-04 21:00 51.23799 -104.62978 37913 ft 428 kts 272°
2026-05-04 21:00 51.23589 -104.72487 37919 ft 428 kts 272°
2026-05-04 21:01 51.23372 -104.81970 37925 ft 428 kts 272°
2026-05-04 21:01 51.23148 -104.91425 37930 ft 428 kts 272°
2026-05-04 21:02 51.22915 -105.00927 37931 ft 428 kts 272°
2026-05-04 21:02 51.22675 -105.10397 37936 ft 428 kts 272°
2026-05-04 21:03 51.22431 -105.19775 37945 ft 427 kts 272°
2026-05-04 21:03 51.22176 -105.29247 37944 ft 427 kts 272°
2026-05-04 21:04 51.21914 -105.38683 37948 ft 427 kts 272°
2026-05-04 21:04 51.21643 -105.48161 37948 ft 427 kts 272°
2026-05-04 21:05 51.21367 -105.57578 37952 ft 427 kts 272°
2026-05-04 21:05 51.21080 -105.67079 37948 ft 427 kts 271°
2026-05-04 21:06 51.20785 -105.76638 37954 ft 428 kts 271°
2026-05-04 21:06 51.20486 -105.86014 37952 ft 427 kts 271°
2026-05-04 21:07 51.20177 -105.95493 37949 ft 428 kts 271°
2026-05-04 21:07 51.19861 -106.04967 37947 ft 428 kts 271°
2026-05-04 21:08 51.19537 -106.14444 37952 ft 428 kts 271°
2026-05-04 21:08 51.19207 -106.23846 37957 ft 427 kts 271°
2026-05-04 21:09 51.18868 -106.33323 37955 ft 427 kts 271°
2026-05-04 21:09 51.18522 -106.42750 37956 ft 427 kts 271°
2026-05-04 21:10 51.18170 -106.52138 37957 ft 428 kts 271°
2026-05-04 21:10 51.17808 -106.61615 37960 ft 428 kts 271°
2026-05-04 21:11 51.17438 -106.71070 37960 ft 427 kts 271°
2026-05-04 21:11 51.17061 -106.80473 37959 ft 427 kts 271°
2026-05-04 21:12 51.16674 -106.89886 37958 ft 427 kts 271°
2026-05-04 21:12 51.16281 -106.99288 37960 ft 427 kts 271°
2026-05-04 21:13 51.15883 -107.08687 37967 ft 426 kts 271°
2026-05-04 21:13 51.15477 -107.18089 37957 ft 426 kts 271°
2026-05-04 21:14 51.15066 -107.27459 37963 ft 426 kts 271°
2026-05-04 21:14 51.14645 -107.36848 37960 ft 427 kts 271°
2026-05-04 21:15 51.14216 -107.46283 37969 ft 426 kts 271°
2026-05-04 21:15 51.13782 -107.55630 37966 ft 426 kts 271°
2026-05-04 21:16 51.13339 -107.65083 37974 ft 425 kts 270°
2026-05-04 21:16 51.12893 -107.74445 37974 ft 425 kts 270°
2026-05-04 21:17 51.12434 -107.83869 37980 ft 425 kts 270°
2026-05-04 21:17 51.11971 -107.93215 37982 ft 426 kts 270°
2026-05-04 21:18 51.11494 -108.02641 37981 ft 425 kts 270°
2026-05-04 21:18 51.11017 -108.11966 37986 ft 424 kts 270°
2026-05-04 21:19 51.10532 -108.21333 37988 ft 426 kts 270°
2026-05-04 21:19 51.10038 -108.30711 37990 ft 427 kts 270°
2026-05-04 21:20 51.09534 -108.40072 37993 ft 424 kts 270°
2026-05-04 21:20 51.09028 -108.49355 37992 ft 425 kts 270°
2026-05-04 21:21 51.08514 -108.58671 37991 ft 425 kts 270°
2026-05-04 21:21 51.07986 -108.68086 37995 ft 426 kts 270°
2026-05-04 21:22 51.07453 -108.77494 37991 ft 427 kts 270°
2026-05-04 21:22 51.06912 -108.86865 37993 ft 427 kts 270°
2026-05-04 21:23 51.06359 -108.96295 37997 ft 428 kts 270°
2026-05-04 21:23 51.05805 -109.05636 38002 ft 427 kts 270°
2026-05-04 21:24 51.05241 -109.14977 37995 ft 424 kts 270°
2026-05-04 21:24 51.04672 -109.24287 38008 ft 425 kts 270°
2026-05-04 21:25 51.04096 -109.33624 38014 ft 426 kts 270°
2026-05-04 21:25 51.03510 -109.42990 38017 ft 424 kts 270°
2026-05-04 21:26 51.02918 -109.52303 38015 ft 424 kts 271°
2026-05-04 21:26 51.02321 -109.61618 38025 ft 426 kts 271°
2026-05-04 21:27 51.01713 -109.70991 38023 ft 427 kts 270°
2026-05-04 21:27 51.01094 -109.80345 38022 ft 426 kts 270°
2026-05-04 21:28 51.00462 -109.89741 38036 ft 426 kts 270°
2026-05-04 21:28 50.99668 -110.01453 38040 ft 427 kts 271°
2026-05-04 21:29 50.96369 -110.48418 38030 ft 424 kts 271°
2026-05-04 21:29 50.92815 -110.96245 38038 ft 419 kts 271°
2026-05-04 21:30 50.88436 -111.51955 38062 ft 419 kts 272°
2026-05-04 21:30 50.83815 -112.07035 38055 ft 418 kts 272°
2026-05-04 21:31 50.76397 -112.89702 38031 ft 415 kts 272°
2026-05-04 21:32 50.71124 -113.44486 38063 ft 414 kts 272°
2026-05-04 21:32 50.65678 -113.98489 38094 ft 414 kts 272°
2026-05-04 21:33 50.59963 -114.52602 38063 ft 413 kts 272°
2026-05-04 21:33 50.53973 -115.06589 38027 ft 416 kts 273°
2026-05-04 21:33 50.50919 -115.33706 38166 ft 421 kts 273°
2026-05-04 21:34 50.47705 -115.61229 38032 ft 420 kts 273°
2026-05-04 21:34 50.41054 -116.15720 38009 ft 421 kts 272°
2026-05-04 21:35 50.34254 -116.70360 38008 ft 422 kts 271°
2026-05-04 21:35 50.27515 -117.21775 37975 ft 422 kts 271°
2026-05-04 21:36 50.26311 -117.30765 37997 ft 423 kts 271°
2026-05-04 21:36 50.25104 -117.39744 37999 ft 425 kts 271°
2026-05-04 21:37 50.23888 -117.48740 38004 ft 425 kts 271°
2026-05-04 21:37 50.22671 -117.57705 37990 ft 424 kts 271°
2026-05-04 21:38 50.21433 -117.66762 37981 ft 426 kts 270°
2026-05-04 21:38 50.20193 -117.75791 37955 ft 425 kts 270°
2026-05-04 21:39 50.18942 -117.84821 37959 ft 425 kts 270°
2026-05-04 21:39 50.17693 -117.93786 37962 ft 427 kts 270°
2026-05-04 21:40 50.16427 -118.02846 37956 ft 428 kts 269°
2026-05-04 21:40 50.15142 -118.11916 37977 ft 427 kts 269°
2026-05-04 21:41 50.13868 -118.20885 37981 ft 426 kts 269°
2026-05-04 21:41 50.12583 -118.29922 37984 ft 430 kts 269°
2026-05-04 21:42 50.11286 -118.38922 37990 ft 427 kts 269°
2026-05-04 21:42 50.09987 -118.47917 37989 ft 427 kts 269°
2026-05-04 21:43 50.08676 -118.56940 37990 ft 426 kts 269°
2026-05-04 21:43 50.07359 -118.65960 37994 ft 428 kts 269°
2026-05-04 21:44 50.06028 -118.75060 38006 ft 428 kts 268°
2026-05-04 21:44 50.04689 -118.84103 38002 ft 427 kts 268°
2026-05-04 21:45 50.03348 -118.93132 38009 ft 430 kts 268°
2026-05-04 21:45 50.01992 -119.02202 38016 ft 430 kts 268°
2026-05-04 21:46 50.00620 -119.11326 38012 ft 430 kts 268°
2026-05-04 21:46 49.99251 -119.20358 38000 ft 430 kts 268°
2026-05-04 21:47 49.97882 -119.29375 37971 ft 429 kts 268°
2026-05-04 21:47 49.96504 -119.38371 37950 ft 431 kts 268°
2026-05-04 21:48 49.95102 -119.47496 37937 ft 431 kts 268°
2026-05-04 21:48 49.93699 -119.56541 37958 ft 431 kts 268°
2026-05-04 21:49 49.92293 -119.65579 37993 ft 431 kts 267°
2026-05-04 21:49 49.90860 -119.74738 38021 ft 433 kts 266°
2026-05-04 21:50 49.89433 -119.83817 38016 ft 432 kts 266°
2026-05-04 21:50 49.87996 -119.92886 38015 ft 431 kts 266°
2026-05-04 21:51 49.86560 -120.01890 38025 ft 431 kts 266°
2026-05-04 21:51 49.85113 -120.10952 38028 ft 432 kts 266°
2026-05-04 21:52 49.83659 -120.19960 37736 ft 427 kts 266°
2026-05-04 21:52 49.82949 -120.24323 37320 ft 422 kts 266°
2026-05-04 21:52 49.82228 -120.28744 36766 ft 419 kts 266°
2026-05-04 21:52 49.81522 -120.33083 36146 ft 418 kts 266°
2026-05-04 21:53 49.80815 -120.37426 35691 ft 414 kts 266°
2026-05-04 21:53 49.80116 -120.41708 35168 ft 411 kts 266°
2026-05-04 21:53 49.79416 -120.45987 34650 ft 408 kts 266°
2026-05-04 21:53 49.78726 -120.50194 34148 ft 405 kts 266°
2026-05-04 21:54 49.78045 -120.54344 33668 ft 402 kts 265°
2026-05-04 21:54 49.77352 -120.58563 33162 ft 400 kts 265°
2026-05-04 21:54 49.76674 -120.62682 32665 ft 398 kts 265°
2026-05-04 21:54 49.75983 -120.66863 32163 ft 396 kts 264°
2026-05-04 21:55 49.75303 -120.70969 31661 ft 395 kts 264°
2026-05-04 21:55 49.74621 -120.75071 31166 ft 393 kts 264°
2026-05-04 21:55 49.73943 -120.79138 30671 ft 391 kts 264°
2026-05-04 21:55 49.73266 -120.83191 30183 ft 389 kts 264°
2026-05-04 21:56 49.72593 -120.87206 29704 ft 386 kts 264°
2026-05-04 21:56 49.71920 -120.91208 29218 ft 384 kts 263°
2026-05-04 21:56 49.71256 -120.95152 28737 ft 382 kts 263°
2026-05-04 21:56 49.70589 -120.99100 28259 ft 380 kts 263°
2026-05-04 21:57 49.69925 -121.03020 27780 ft 378 kts 263°
2026-05-04 21:57 49.69264 -121.06915 27300 ft 376 kts 263°
2026-05-04 21:57 49.68604 -121.10795 26818 ft 374 kts 263°
2026-05-04 21:57 49.67947 -121.14651 26345 ft 372 kts 263°
2026-05-04 21:58 49.67288 -121.18515 25871 ft 370 kts 263°
2026-05-04 21:58 49.66643 -121.22281 25398 ft 367 kts 262°
2026-05-04 21:58 49.65993 -121.26073 24934 ft 365 kts 263°
2026-05-04 21:58 49.65347 -121.29832 24453 ft 363 kts 262°
2026-05-04 21:59 49.64696 -121.33610 23975 ft 360 kts 262°
2026-05-04 21:59 49.64055 -121.37312 23526 ft 357 kts 262°
2026-05-04 21:59 49.63421 -121.40977 23065 ft 354 kts 262°
2026-05-04 21:59 49.62793 -121.44604 22635 ft 351 kts 262°
2026-05-04 22:00 49.62167 -121.48216 22181 ft 349 kts 262°
2026-05-04 22:00 49.61543 -121.51807 21737 ft 346 kts 262°
2026-05-04 22:00 49.60923 -121.55370 21304 ft 343 kts 262°
2026-05-04 22:00 49.60307 -121.58901 20871 ft 341 kts 262°
2026-05-04 22:01 49.59695 -121.62396 20454 ft 338 kts 262°
2026-05-04 22:01 49.59081 -121.65882 20026 ft 335 kts 261°
2026-05-04 22:01 49.58479 -121.69307 19616 ft 333 kts 261°
2026-05-04 22:01 49.57873 -121.72750 19185 ft 331 kts 260°
2026-05-04 22:02 49.57279 -121.76125 18756 ft 328 kts 260°
2026-05-04 22:02 49.56680 -121.79517 18338 ft 326 kts 260°
2026-05-04 22:02 49.56094 -121.82828 17923 ft 323 kts 260°
2026-05-04 22:02 49.55507 -121.86144 17581 ft 319 kts 260°
2026-05-04 22:03 49.54927 -121.89409 17217 ft 316 kts 259°
2026-05-04 22:03 49.54350 -121.92655 16798 ft 314 kts 260°
2026-05-04 22:03 49.53775 -121.95878 16416 ft 312 kts 259°
2026-05-04 22:03 49.53204 -121.99077 16008 ft 310 kts 260°
2026-05-04 22:04 49.52613 -122.02235 15624 ft 308 kts 257°
2026-05-04 22:04 49.51856 -122.05331 15207 ft 310 kts 250°
2026-05-04 22:04 49.50841 -122.08284 14807 ft 311 kts 244°
2026-05-04 22:04 49.49714 -122.11083 14416 ft 311 kts 242°
2026-05-04 22:05 49.48548 -122.13861 14015 ft 310 kts 241°
2026-05-04 22:05 49.47380 -122.16659 13607 ft 308 kts 242°
2026-05-04 22:05 49.46254 -122.19410 13209 ft 305 kts 242°
2026-05-04 22:05 49.45141 -122.22196 12851 ft 304 kts 243°
2026-05-04 22:06 49.44051 -122.24956 12422 ft 303 kts 242°
2026-05-04 22:06 49.42966 -122.27700 12039 ft 302 kts 242°
2026-05-04 22:06 49.41874 -122.30459 11659 ft 300 kts 242°
2026-05-04 22:06 49.40805 -122.33147 11429 ft 294 kts 242°
2026-05-04 22:07 49.39652 -122.35699 11275 ft 285 kts 235°
2026-05-04 22:07 49.38383 -122.38023 10898 ft 286 kts 231°
2026-05-04 22:07 49.37058 -122.40279 10565 ft 285 kts 230°
2026-05-04 22:07 49.35726 -122.42517 10218 ft 285 kts 230°
2026-05-04 22:08 49.34403 -122.44753 9851 ft 283 kts 230°
2026-05-04 22:08 49.33084 -122.46986 9560 ft 280 kts 230°
2026-05-04 22:08 49.31785 -122.49193 9210 ft 280 kts 230°
2026-05-04 22:08 49.30485 -122.51405 8858 ft 279 kts 230°
2026-05-04 22:09 49.29188 -122.53612 8521 ft 278 kts 230°
2026-05-04 22:09 49.27902 -122.55801 8208 ft 277 kts 230°
2026-05-04 22:09 49.26631 -122.57968 7859 ft 278 kts 231°
2026-05-04 22:09 49.25339 -122.60176 7501 ft 276 kts 231°
2026-05-04 22:10 49.24059 -122.62361 7195 ft 275 kts 231°
2026-05-04 22:10 49.22798 -122.64510 6833 ft 273 kts 230°
2026-05-04 22:10 49.21522 -122.66682 6519 ft 270 kts 230°
2026-05-04 22:10 49.20256 -122.68790 6213 ft 269 kts 227°
2026-05-04 22:11 49.18956 -122.70801 5890 ft 269 kts 226°
2026-05-04 22:11 49.17632 -122.72778 5575 ft 266 kts 226°
2026-05-04 22:11 49.16313 -122.74745 5234 ft 263 kts 226°
2026-05-04 22:11 49.15075 -122.76742 4917 ft 256 kts 233°
2026-05-04 22:12 49.14266 -122.79049 4738 ft 241 kts 258°
2026-05-04 22:12 49.14299 -122.81544 4446 ft 232 kts 288°
2026-05-04 22:12 49.14977 -122.83745 4147 ft 228 kts 298°
2026-05-04 22:12 49.15453 -122.86004 3859 ft 225 kts 280°
2026-05-04 22:13 49.15626 -122.88363 3531 ft 221 kts 276°
2026-05-04 22:13 49.15780 -122.90666 3261 ft 216 kts 277°
2026-05-04 22:13 49.15971 -122.92934 2960 ft 211 kts 278°
2026-05-04 22:13 49.16175 -122.95110 2673 ft 207 kts 279°
2026-05-04 22:14 49.16396 -122.97223 2519 ft 197 kts 279°
2026-05-04 22:14 49.16593 -122.99294 2236 ft 194 kts 278°
2026-05-04 22:14 49.16790 -123.01333 1907 ft 195 kts 278°
2026-05-04 22:14 49.16995 -123.03342 1709 ft 189 kts 279°
2026-05-04 22:15 49.17223 -123.05313 1416 ft 187 kts 281°
2026-05-04 22:15 49.17468 -123.07185 1180 ft 170 kts 282°
2026-05-04 22:15 49.17679 -123.08854 904 ft 157 kts 279°
2026-05-04 22:15 49.17850 -123.10421 690 ft 145 kts 279°
2026-05-04 22:16 49.18009 -123.11948 532 ft 142 kts 278°
2026-05-04 22:16 49.18176 -123.13438 386 ft 143 kts 279°
2026-05-04 22:16 49.18347 -123.14938 210 ft 142 kts 278°
2026-05-04 22:16 49.18513 -123.16414 23 ft 137 kts 278°
2026-05-04 22:17 49.18650 -123.17615 18 ft 88 kts 279°
2026-05-04 22:17 49.18731 -123.18333 18 ft 54 kts 279°
2026-05-04 22:17 49.18779 -123.18762 18 ft 31 kts 280°
2026-05-04 22:17 49.18818 -123.19099 18 ft 34 kts 279°
2026-05-04 22:18 49.18864 -123.19472 18 ft 37 kts 292°
2026-05-04 22:18 49.18990 -123.19740 19 ft 17 kts 311°
2026-05-04 22:18 49.19080 -123.19840 20 ft 17 kts 349°
2026-05-04 22:18 49.19206 -123.19801 19 ft 21 kts 36°
2026-05-04 22:19 49.19279 -123.19653 18 ft 17 kts 80°
2026-05-04 22:19 49.19302 -123.19470 18 ft 17 kts 79°
2026-05-04 22:19 49.19325 -123.19287 17 ft 17 kts 79°
2026-05-04 22:19 49.19347 -123.19104 17 ft 17 kts 79°
2026-05-04 22:20 49.19370 -123.18924 17 ft 16 kts 79°
2026-05-04 22:20 49.19391 -123.18753 18 ft 16 kts 79°
2026-05-04 22:20 49.19384 -123.18593 18 ft 14 kts 142°
2026-05-04 22:20 49.19291 -123.18607 18 ft 13 kts 191°
2026-05-04 22:21 49.19212 -123.18594 18 ft 11 kts 144°
2026-05-04 22:21 49.19151 -123.18521 18 ft 10 kts 142°
2026-05-04 22:21 49.19117 -123.18467 18 ft 4 kts 90°
2026-05-04 22:21 49.19141 -123.18436 18 ft 4 kts 22°
2026-05-04 22:22 49.19170 -123.18420 18 ft 4 kts 20°
2026-05-04 22:22 49.19190 -123.18409 19 ft 0 kts 20°